Location: ?
(35.2180°N, 139.6392°E)
Time: 03:49:46
(UTC+00:00)

Cosmos 2297 Rocket - Pass Details

Date: 05 August 2024
Orbit: 837 x 844 km, 71.0° (Epoch: 09 September)

Event Time Altitude Azimuth Distance (km) Brightness Sun altitude
Rises 13:12:56 0° 343° (NNW) 3,407 6.4 -33.4°
Reaches altitude 10° 13:15:27 10° 348° (NNW) 2,469 5.4 -33.6°
Enters shadow 13:19:12 39° 13° (NNE) 1,255 3.3 -34.0°
